Flag for Brazil Weather past 2 weeks in Porto Acre, Acre, Brazil

Now
73 °F

Clear.


Feels Like: 74 °F
Forecast: 74 / 98 °F
Wind: 2 mph from Northwest

Location: Rio Branco Airport

Current Time: Sep 1, 2014 at 3:12:16 AM

Latest Report: Sep 1, 2014 at 2:00 AM


Visibility: 10 mi

Pressure: 29.89 "Hg

Humidity: 78%

Dew point: 66 °F

Location of Porto AcreLocation

Historic Weather in Porto Acre — Graph

°F

Porto Acre temperature yesterday

Maximum temperature yesterday: 91 °F (at 12:00 PM)
Minimum temperature yesterday: 72 °F (at 2:00 AM)
Average temperature yesterday: 81 °F

Past Weeks' High & Low Weather Summary

 TemperatureHumidityPressure
High93 °F (Aug 18, 1:00 PM)94% (Aug 21, 6:00 AM)30.04 "Hg (Aug 21, 6:00 AM)
Low63 °F (Aug 27, 5:00 AM)24% (Aug 18, 1:00 PM)29.74 "Hg (Aug 24, 5:00 PM)
Average78 °F65%29.92 "Hg
* Reported Aug 17 2:00 AM — Sep 1 2:00 AM, Porto Acre, Weather by CustomWeather, © 2014

Note: Actual official high and low records may vary slightly from our data, if they occured in-between our weather recording intervals... More about our weather records

Advertising

Porto Acre weather history for previous 24 hours

 ConditionsComfort  
Time TempWeatherWind HumidityBarometerVisibility
2:00 AM
Sep 1
73 °FClear.2 mph78%29.89 "Hg10 mi
1:00 AM73 °FClear.3 mph78%29.89 "Hg10 mi
12:00 AM75 °FClear.2 mph74%29.92 "Hg10 mi
11:00 PM
Aug 31
75 °FClear.3 mph78%29.92 "Hg10 mi
10:00 PM75 °FClear.1 mph78%29.92 "Hg10 mi
9:00 PM77 °FClear.2 mph74%29.92 "Hg10 mi
8:00 PM77 °FClear.No wind74%29.89 "Hg10 mi
7:00 PM79 °FClear.No wind70%29.89 "Hg10 mi
6:00 PM84 °FSunny.No wind55%29.86 "Hg10 mi
5:00 PM90 °FSunny.3 mph41%29.86 "Hg10 mi
4:00 PM90 °FPassing clouds.5 mph43%29.86 "HgN/A
3:00 PM91 °FPassing clouds.8 mph38%29.86 "HgN/A
2:00 PM91 °FScattered clouds.17 mph36%29.89 "HgN/A
1:00 PM91 °FScattered clouds.6 mph38%29.92 "HgN/A
12:00 PM91 °FScattered clouds.12 mph41%29.95 "HgN/A
11:00 AM90 °FScattered clouds.8 mph49%29.98 "HgN/A
10:00 AM86 °FPassing clouds.9 mph52%30.01 "HgN/A
9:00 AM84 °FSunny.8 mph58%30.01 "Hg10 mi
8:00 AM81 °FSunny.12 mph66%30.01 "Hg10 mi
7:00 AM75 °FSunny.3 mph74%29.98 "Hg10 mi
6:00 AM72 °FClear.3 mph83%29.98 "Hg10 mi
5:00 AM72 °FClear.5 mph78%29.95 "Hg10 mi
4:00 AM72 °FClear.5 mph83%29.95 "Hg10 mi
3:00 AM72 °FClear.3 mph83%29.92 "Hg10 mi
Weather by CustomWeather, © 2014

See weather overviewHow to use our weather pages